Weather History for K2WX - December, 2013

Change the Weather History Date:

Sunday, December 8, 2013

  Actual Average Record
Temperature  
Mean Temperature -7 °F 22 °F  
Max Temperature 1 °F 32 °F 57 °F (2006)
Min Temperature -15 °F 12 °F -15 °F (2013)
Degree Days  
Heating Degree Days 72 43  
Month to date heating degree days 486 336  
Since 1 July heating degree days 2276 2234  
Cooling Degree Days 0 0  
Month to date cooling degree days 0 0  
Year to date cooling degree days 587 513  
Moisture  
Dew Point -15 °F    
Average Humidity 67    
Maximum Humidity 81    
Minimum Humidity 53    
Precipitation  
Precipitation 0.01 in 0.01 in 0.03 in (2012)
Month to date precipitation 0.49 0.05  
Year to date precipitation 12.64 14.28  
Sea Level Pressure  
Sea Level Pressure 30.15 in    
Wind  
Wind Speed 12 mph (West)    
Max Wind Speed 29 mph    
Max Gust Speed 32 mph    
T = Trace of Precipitation, MM = Missing Value Source: NWS Daily Summary

Daily Weather History Graph

Daily Weather History Graph

Search for Another Location

Airport or City:

Trip Planner

Search our weather history database for the weather conditions in past years. The results will help you decide how hot, cold, wet, or windy it might be!

Date:

Astronomy

Dec. 08, 2013 Rise Set
Actual Time 7:22 AM MST 4:10 PM MST
Civil Twilight 6:48 AM MST 4:44 PM MST
Nautical Twilight 6:10 AM MST 5:21 PM MST
Astronomical Twilight 5:34 AM MST 5:57 PM MST
Moon 11:29 AM MST (12/8) 11:18 PM MST (12/8)
Length of Visible Light 9h 56m
Length of Day
8h 48m
Waxing Crescent, 40% of the Moon is Illuminated
Dec 8
Waxing Crescent
Dec 9
First Quarter
Dec 17
Full
Dec 25
Last Quarter
Jan 1
New

Hourly Weather History & Observations

Time (MST) Temp. Windchill Dew Point Humidity Pressure Visibility Wind Dir Wind Speed Gust Speed Precip Events Conditions
12:56 AM -14.1 °F - -18.9 °F 79% 30.22 in - Calm Calm - N/A   Unknown
1:56 AM -14.1 °F - -18.9 °F 79% 30.19 in - Calm Calm - 0.01 in   Unknown
2:56 AM -14.1 °F - -18.9 °F 79% 30.17 in - Calm Calm - N/A   Unknown
3:56 AM -15.0 °F -25.0 °F -20.0 °F 78% 30.16 in - WNW 3.5 mph - N/A   Unknown
4:56 AM -13.0 °F -27.0 °F -18.9 °F 75% 30.14 in - WNW 5.8 mph - N/A   Unknown
5:56 AM -13.0 °F -27.0 °F -18.9 °F 75% 30.14 in - West 5.8 mph - N/A   Unknown
6:56 AM -13.0 °F -27.0 °F -18.9 °F 75% 30.14 in - SW 5.8 mph - N/A   Unknown
7:56 AM -11.9 °F -28.7 °F -18.0 °F 74% 30.11 in - WSW 8.1 mph - N/A   Unknown
8:56 AM -13.0 °F -32.4 °F -18.9 °F 75% 30.13 in - West 10.4 mph - N/A   Unknown
9:56 AM -8.0 °F -28.0 °F -16.1 °F 68% 30.12 in - West 12.7 mph - N/A   Unknown
10:56 AM -6.0 °F -23.6 °F -15.0 °F 65% 30.10 in - WSW 10.4 mph - N/A   Unknown
11:56 AM -4.0 °F -24.5 °F -13.0 °F 65% 30.08 in - West 15.0 mph - N/A   Unknown
12:56 PM -0.9 °F -23.0 °F -13.0 °F 57% 30.07 in - West 19.6 mph - N/A   Unknown
1:56 PM -0.0 °F -23.3 °F -11.0 °F 60% 30.07 in - West 23.0 mph - N/A   Unknown
2:56 PM -0.0 °F -21.8 °F -9.0 °F 66% 30.09 in - WNW 19.6 mph 26.5 mph N/A   Unknown
3:56 PM -0.9 °F -24.5 °F -9.0 °F 69% 30.13 in - WNW 23.0 mph - N/A   Unknown
4:56 PM -2.9 °F -25.6 °F -11.0 °F 68% 30.14 in - WNW 19.6 mph - N/A   Unknown
5:56 PM -5.1 °F -23.5 °F -11.0 °F 76% 30.18 in - WNW 11.5 mph - N/A   Unknown
6:56 PM -2.9 °F -26.7 °F -9.9 °F 72% 30.19 in - WNW 21.9 mph - N/A   Unknown
7:56 PM -0.9 °F -24.1 °F -9.0 °F 69% 30.19 in - WNW 21.9 mph - N/A   Unknown
8:56 PM -6.0 °F -28.4 °F -11.9 °F 75% 30.22 in - WNW 17.3 mph - N/A   Unknown
9:56 PM -8.0 °F -29.6 °F -13.0 °F 79% 30.22 in - WNW 15.0 mph - N/A   Unknown
10:56 PM -9.9 °F -28.6 °F -15.0 °F 78% 30.23 in - West 10.4 mph - N/A   Unknown
11:56 PM -9.9 °F -31.3 °F -16.1 °F 74% 30.22 in - WNW 13.8 mph - N/A   Unknown